Welcome to our new website - Welkom op onze vernieuwde website - Bienvenue sur notre nouveau site web - Willkommen auf unserer neuen Website
Check our progress frequently. Prüfen Sie unsere Fortschritte regelmäßig. Consultez notre progression fréquemment. Komt u straks nog eens terug


Hej. Vi har købt ny vejrstation, og er ved at bygge en helt ny vejrside.
Kom snart tilbage og følg udviklingen.
Du kan også komme med kommentarer eller evt. ønsker via "Kontakt" i bunden.



Webcam more information Webcam


Rain radar more information rain snow radar


Visit our other weather sites:

Template documentation
and downloads

And another site



Select another period ( hide this area )

Units Period Custom range Directly to
Metric English Both
Daily Weekly Monthly Yearly
use both date-selectors for a custom range
previous Day
With this date

WeatherUnderground graphs for this period ( click here )


Daily Summary for Tuesday 25 June 2019
Time Temp. ( °C ) Dew pt. ( °C ) Wind ( km/h ) from Gust ( km/h ) Pressure ( hPa ) Humid.( % ) Rainrate ( cm ) Solar ( W/m2 )
High19,1 15,6 13,0 East ( 157/461 ) 24,1 1028,0 90 - 487
Average15,5 12,8 4,3 East #32/107 10,7 1026,7 84 - 175 #57/107
Low13,9 10,7 -   3,2 1025,3 73 -  
Daily Tabular details for Tuesday 25 June 2019
Time Temp. ( °C ) Dew pt. ( °C ) Wind ( km/h ) from Gust ( km/h ) Pressure ( hPa ) Humid.( % ) Rainrate ( cm ) Solar ( W/m2 )
00:04 15,7 10,9 3,2 East 12,9 1027,7 73 - -
00:09 15,6 11,0   Calm 4,8 1027,7 74 - -
00:14 15,6 11,0 6,4 SE 12,9 1028,0 74 - -
00:19 15,6 10,8 4,7 SE 11,3 1027,7 73 - -
00:24 15,4 10,8   Calm 14,5 1027,7 74 - -
00:29 15,3 10,7 3,2 ESE 12,9 1027,7 74 - -
00:34 15,2 10,8 6,4 East 17,7 1027,7 75 - -
00:39 15,3 10,9 7,9 SSE 20,9 1027,7 75 - -
00:44 15,3 10,9 4,7 ESE 12,9 1027,7 75 - -
00:49 15,2 10,8 4,7 SE 16,1 1027,7 75 - -
00:54 15,2 11,0 1,4 East 11,3 1027,7 76 - -
00:59 15,1 10,9 6,4 East 24,1 1027,7 76 - -
01:04 15,1 10,9 3,2 ESE 11,3 1027,7 76 - -
01:09 15,1 11,1 4,7 East 12,9 1027,7 77 - -
01:14 15,0 11,0 1,4 SSE 6,4 1027,7 77 - -
01:19 14,9 11,1 3,2 SE 14,5 1027,7 78 - -
01:24 14,9 11,3 1,4 ENE 8,0 1027,7 79 - -
01:29 14,8 11,4 9,7 SSE 9,7 1027,7 80 - -
01:34 14,9 11,5 1,4 SE 6,4 1027,7 80 - -
01:39 14,7 11,5 6,4 South 8,0 1027,7 81 - -
01:44 14,7 11,5 1,4 ESE 9,7 1027,7 81 - -
01:49 14,6 11,6 1,4 SE 12,9 1027,7 82 - -
01:54 14,7 11,7 13,0 SE 14,5 1027,7 82 - -
01:59 14,7 11,7 4,7 East 6,4 1027,7 82 - -
02:04 14,6 11,7 3,2 East 14,5 1027,3 83 - -
02:09 14,6 11,9 1,4 ESE 12,9 1027,3 84 - -
02:14 14,5 11,8 1,4 East 4,8 1027,3 84 - -
02:19 14,4 11,7 1,4 ESE 8,0 1027,3 84 - -
02:24 14,4 11,9 1,4 SE 4,8 1027,3 85 - -
02:29 14,3 11,8   Calm 4,8 1027,3 85 - -
02:34 14,2 11,9 3,2 East 4,8 1027,3 86 - -
02:39 14,2 12,1 4,7 ENE 6,4 1027,3 87 - -
02:44 14,1 12,0 3,2 SE 6,4 1027,7 87 - -
02:49 14,1 12,0 3,2 SE 6,4 1027,3 87 - -
02:54 14,0 11,9 1,4 East 9,7 1027,3 87 - -
02:59 13,9 11,9 1,4 ESE 3,2 1027,3 88 - -
03:04 14,1 12,1 3,2 ESE 8,0 1027,3 88 - -
03:09 14,1 12,1 1,4 ESE 8,0 1027,3 88 - -
03:14 14,1 12,1 3,2 ESE 6,4 1027,3 88 - -
03:19 14,2 12,2 1,4 East 6,4 1027,3 88 - -
03:24 14,2 12,4   Calm 11,3 1027,3 89 - -
03:29 14,3 12,3 3,2 SE 4,8 1027,3 88 - -
03:34 14,3 12,3 4,7 SSE 6,4 1027,3 88 - -
03:39 14,3 12,5 1,4 East 8,0 1027,0 89 - -
03:44 14,3 12,5 1,4 SE 4,8 1027,0 89 - -
03:49 14,4 12,6 3,2 East 6,4 1027,0 89 - -
03:54 14,3 12,5 1,4 ESE 11,3 1027,0 89 - -
03:59 14,3 12,5 3,2 ESE 12,9 1027,0 89 - -
04:04 14,3 12,5 4,7 ESE 9,7 1027,0 89 - -
04:09 14,2 12,4 3,2 ESE 12,9 1027,0 89 - -
04:14 14,2 12,4 4,7 SE 9,7 1026,6 89 - 5
04:19 14,2 12,4 13,0 ESE 12,9 1026,6 89 - 5
04:24 14,3 12,7 1,4 ESE 9,7 1026,6 90 - 5
04:29 14,2 12,4 1,4 SE 11,3 1026,6 89 - 7
04:34 14,3 12,7   Calm 4,8 1026,6 90 - 9
04:39 14,2 12,4 3,2 East 9,7 1026,6 89 - 11
04:44 14,2 12,6 3,2 SE 11,3 1026,6 90 - 12
04:49 14,3 12,7 1,4 ESE 14,5 1026,3 90 - 16
04:54 14,4 12,8 4,7 East 11,3 1026,6 90 - 18
04:59 14,4 12,8 9,7 East 12,9 1026,6 90 - 21
05:04 14,4 12,8 6,4 East 6,4 1026,6 90 - 26
05:09 14,5 12,9 9,7 East 11,3 1026,3 90 - 32
05:14 14,6 13,0 7,9 East 8,0 1026,3 90 - 37
05:19 14,7 13,1 4,7 East 9,7 1026,3 90 - 40
05:24 14,8 13,2 3,2 SSE 9,7 1026,3 90 - 40
05:29 14,8 13,2 6,4 SE 11,3 1026,3 90 - 44
05:34 14,9 13,1 6,4 East 14,5 1026,3 89 - 46
05:39 14,9 13,1 1,4 East 6,4 1026,3 89 - 49
05:44 15,0 13,2 3,2 ESE 6,4 1026,0 89 - 58
05:49 15,1 13,3 1,4 ESE 8,0 1026,0 89 - 62
05:54 15,2 13,4 3,2 ESE 9,7 1026,0 89 - 76
05:59 15,2 13,2 7,9 ENE 12,9 1026,0 88 - 72
06:04 15,3 13,3 7,9 SE 14,5 1026,0 88 - 76
06:09 15,4 13,4 6,4 ENE 11,3 1026,0 88 - 91
06:14 15,5 13,5 3,2 SE 9,7 1026,0 88 - 93
06:19 15,6 13,4 1,4 SSE 9,7 1026,0 87 - 116
06:24 15,7 13,5 4,7 SE 11,3 1026,0 87 - 125
06:29 15,9 13,7 9,7 East 14,5 1026,0 87 - 130
06:34 16,0 13,7 4,7 East 12,9 1026,0 86 - 116
06:39 16,0 13,7 4,7 East 6,4 1025,6 86 - 141
06:44 16,2 13,9 3,2 East 9,7 1025,6 86 - 162
06:49 16,3 14,0 3,2 East 17,7 1025,6 86 - 192
06:54 16,4 13,9 13,0 East 14,5 1025,6 85 - 146
06:59 16,6 14,2 6,4 ESE 12,9 1025,6 86 - 223
07:04 16,8 14,3 3,2 ENE 11,3 1025,6 85 - 258
07:09 16,9 14,2 9,7 ESE 9,7 1025,6 84 - 225
07:14 17,1 14,4 3,2 SSE 11,3 1025,6 84 - 232
07:19 17,1 14,4 3,2 SSE 16,1 1025,6 84 - 248
07:24 17,1 14,4 4,7 ENE 16,1 1025,6 84 - 236
07:29 17,2 14,5 1,4 South 11,3 1025,6 84 - 271
07:34 17,3 14,4 9,7 ESE 12,9 1025,6 83 - 285
07:39 17,6 14,7 4,7 ENE 12,9 1025,6 83 - 316
07:44 17,6 14,5 6,4 ESE 9,7 1025,6 82 - 330
07:49 17,6 14,5 3,2 East 8,0 1025,6 82 - 364
07:54 17,7 14,6 7,9 East 14,5 1025,6 82 - 334
07:59 17,9 14,8 13,0 ESE 17,7 1025,6 82 - 323
08:04 18,1 15,0   Calm 4,8 1025,6 82 - 381
08:09 18,1 15,0 6,4 ESE 11,3 1025,6 82 - 385
08:14 18,2 14,7 4,7 SSE 9,7 1025,6 80 - 345
08:19 18,2 15,1 7,9 ENE 12,9 1025,6 82 - 320
08:24 18,4 15,3 4,7 East 6,4 1025,6 82 - 461
08:29 18,8 15,3 7,9 SE 14,5 1025,6 80 - 487
08:34 19,0 15,5 3,2 SSW 11,3 1025,6 80 - 369
08:39 18,6 15,1 6,4 East 12,9 1025,6 80 - 406
08:44 18,7 15,4 3,2 SE 11,3 1025,6 81 - 316
08:49 18,9 15,4 6,4 ENE 16,1 1025,3 80 - 345
08:54 19,1 15,6 4,7 ESE 12,9 1025,3 80 - 452
Daily Summary for Tuesday 25 June 2019
Time Temp. ( °C ) Dew pt. ( °C ) Wind ( km/h ) from Gust ( km/h ) Pressure ( hPa ) Humid.( % ) Rainrate ( cm ) Solar ( W/m2 )
High19,1 15,6 13,0 East ( 157/461 ) 24,1 1028,0 90 - 487
Average15,5 12,8 4,3 East #32/107 10,7 1026,7 84 - 175 #57/107
Low13,9 10,7 -   3,2 1025,3 73 -  
Daily Tabular details for Tuesday 25 June 2019
Time Temp. ( °C ) Dew pt. ( °C ) Wind ( km/h ) from Gust ( km/h ) Pressure ( hPa ) Humid.( % ) Rainrate ( cm ) Solar ( W/m2 )
00:04 15,7 10,9 3,2 East 12,9 1027,7 73 - -
00:09 15,6 11,0   Calm 4,8 1027,7 74 - -
00:14 15,6 11,0 6,4 SE 12,9 1028,0 74 - -
00:19 15,6 10,8 4,7 SE 11,3 1027,7 73 - -
00:24 15,4 10,8   Calm 14,5 1027,7 74 - -
00:29 15,3 10,7 3,2 ESE 12,9 1027,7 74 - -
00:34 15,2 10,8 6,4 East 17,7 1027,7 75 - -
00:39 15,3 10,9 7,9 SSE 20,9 1027,7 75 - -
00:44 15,3 10,9 4,7 ESE 12,9 1027,7 75 - -
00:49 15,2 10,8 4,7 SE 16,1 1027,7 75 - -
00:54 15,2 11,0 1,4 East 11,3 1027,7 76 - -
00:59 15,1 10,9 6,4 East 24,1 1027,7 76 - -
01:04 15,1 10,9 3,2 ESE 11,3 1027,7 76 - -
01:09 15,1 11,1 4,7 East 12,9 1027,7 77 - -
01:14 15,0 11,0 1,4 SSE 6,4 1027,7 77 - -
01:19 14,9 11,1 3,2 SE 14,5 1027,7 78 - -
01:24 14,9 11,3 1,4 ENE 8,0 1027,7 79 - -
01:29 14,8 11,4 9,7 SSE 9,7 1027,7 80 - -
01:34 14,9 11,5 1,4 SE 6,4 1027,7 80 - -
01:39 14,7 11,5 6,4 South 8,0 1027,7 81 - -
01:44 14,7 11,5 1,4 ESE 9,7 1027,7 81 - -
01:49 14,6 11,6 1,4 SE 12,9 1027,7 82 - -
01:54 14,7 11,7 13,0 SE 14,5 1027,7 82 - -
01:59 14,7 11,7 4,7 East 6,4 1027,7 82 - -
02:04 14,6 11,7 3,2 East 14,5 1027,3 83 - -
02:09 14,6 11,9 1,4 ESE 12,9 1027,3 84 - -
02:14 14,5 11,8 1,4 East 4,8 1027,3 84 - -
02:19 14,4 11,7 1,4 ESE 8,0 1027,3 84 - -
02:24 14,4 11,9 1,4 SE 4,8 1027,3 85 - -
02:29 14,3 11,8   Calm 4,8 1027,3 85 - -
02:34 14,2 11,9 3,2 East 4,8 1027,3 86 - -
02:39 14,2 12,1 4,7 ENE 6,4 1027,3 87 - -
02:44 14,1 12,0 3,2 SE 6,4 1027,7 87 - -
02:49 14,1 12,0 3,2 SE 6,4 1027,3 87 - -
02:54 14,0 11,9 1,4 East 9,7 1027,3 87 - -
02:59 13,9 11,9 1,4 ESE 3,2 1027,3 88 - -
03:04 14,1 12,1 3,2 ESE 8,0 1027,3 88 - -
03:09 14,1 12,1 1,4 ESE 8,0 1027,3 88 - -
03:14 14,1 12,1 3,2 ESE 6,4 1027,3 88 - -
03:19 14,2 12,2 1,4 East 6,4 1027,3 88 - -
03:24 14,2 12,4   Calm 11,3 1027,3 89 - -
03:29 14,3 12,3 3,2 SE 4,8 1027,3 88 - -
03:34 14,3 12,3 4,7 SSE 6,4 1027,3 88 - -
03:39 14,3 12,5 1,4 East 8,0 1027,0 89 - -
03:44 14,3 12,5 1,4 SE 4,8 1027,0 89 - -
03:49 14,4 12,6 3,2 East 6,4 1027,0 89 - -
03:54 14,3 12,5 1,4 ESE 11,3 1027,0 89 - -
03:59 14,3 12,5 3,2 ESE 12,9 1027,0 89 - -
04:04 14,3 12,5 4,7 ESE 9,7 1027,0 89 - -
04:09 14,2 12,4 3,2 ESE 12,9 1027,0 89 - -
04:14 14,2 12,4 4,7 SE 9,7 1026,6 89 - 5
04:19 14,2 12,4 13,0 ESE 12,9 1026,6 89 - 5
04:24 14,3 12,7 1,4 ESE 9,7 1026,6 90 - 5
04:29 14,2 12,4 1,4 SE 11,3 1026,6 89 - 7
04:34 14,3 12,7   Calm 4,8 1026,6 90 - 9
04:39 14,2 12,4 3,2 East 9,7 1026,6 89 - 11
04:44 14,2 12,6 3,2 SE 11,3 1026,6 90 - 12
04:49 14,3 12,7 1,4 ESE 14,5 1026,3 90 - 16
04:54 14,4 12,8 4,7 East 11,3 1026,6 90 - 18
04:59 14,4 12,8 9,7 East 12,9 1026,6 90 - 21
05:04 14,4 12,8 6,4 East 6,4 1026,6 90 - 26
05:09 14,5 12,9 9,7 East 11,3 1026,3 90 - 32
05:14 14,6 13,0 7,9 East 8,0 1026,3 90 - 37
05:19 14,7 13,1 4,7 East 9,7 1026,3 90 - 40
05:24 14,8 13,2 3,2 SSE 9,7 1026,3 90 - 40
05:29 14,8 13,2 6,4 SE 11,3 1026,3 90 - 44
05:34 14,9 13,1 6,4 East 14,5 1026,3 89 - 46
05:39 14,9 13,1 1,4 East 6,4 1026,3 89 - 49
05:44 15,0 13,2 3,2 ESE 6,4 1026,0 89 - 58
05:49 15,1 13,3 1,4 ESE 8,0 1026,0 89 - 62
05:54 15,2 13,4 3,2 ESE 9,7 1026,0 89 - 76
05:59 15,2 13,2 7,9 ENE 12,9 1026,0 88 - 72
06:04 15,3 13,3 7,9 SE 14,5 1026,0 88 - 76
06:09 15,4 13,4 6,4 ENE 11,3 1026,0 88 - 91
06:14 15,5 13,5 3,2 SE 9,7 1026,0 88 - 93
06:19 15,6 13,4 1,4 SSE 9,7 1026,0 87 - 116
06:24 15,7 13,5 4,7 SE 11,3 1026,0 87 - 125
06:29 15,9 13,7 9,7 East 14,5 1026,0 87 - 130
06:34 16,0 13,7 4,7 East 12,9 1026,0 86 - 116
06:39 16,0 13,7 4,7 East 6,4 1025,6 86 - 141
06:44 16,2 13,9 3,2 East 9,7 1025,6 86 - 162
06:49 16,3 14,0 3,2 East 17,7 1025,6 86 - 192
06:54 16,4 13,9 13,0 East 14,5 1025,6 85 - 146
06:59 16,6 14,2 6,4 ESE 12,9 1025,6 86 - 223
07:04 16,8 14,3 3,2 ENE 11,3 1025,6 85 - 258
07:09 16,9 14,2 9,7 ESE 9,7 1025,6 84 - 225
07:14 17,1 14,4 3,2 SSE 11,3 1025,6 84 - 232
07:19 17,1 14,4 3,2 SSE 16,1 1025,6 84 - 248
07:24 17,1 14,4 4,7 ENE 16,1 1025,6 84 - 236
07:29 17,2 14,5 1,4 South 11,3 1025,6 84 - 271
07:34 17,3 14,4 9,7 ESE 12,9 1025,6 83 - 285
07:39 17,6 14,7 4,7 ENE 12,9 1025,6 83 - 316
07:44 17,6 14,5 6,4 ESE 9,7 1025,6 82 - 330
07:49 17,6 14,5 3,2 East 8,0 1025,6 82 - 364
07:54 17,7 14,6 7,9 East 14,5 1025,6 82 - 334
07:59 17,9 14,8 13,0 ESE 17,7 1025,6 82 - 323
08:04 18,1 15,0   Calm 4,8 1025,6 82 - 381
08:09 18,1 15,0 6,4 ESE 11,3 1025,6 82 - 385
08:14 18,2 14,7 4,7 SSE 9,7 1025,6 80 - 345
08:19 18,2 15,1 7,9 ENE 12,9 1025,6 82 - 320
08:24 18,4 15,3 4,7 East 6,4 1025,6 82 - 461
08:29 18,8 15,3 7,9 SE 14,5 1025,6 80 - 487
08:34 19,0 15,5 3,2 SSW 11,3 1025,6 80 - 369
08:39 18,6 15,1 6,4 East 12,9 1025,6 80 - 406
08:44 18,7 15,4 3,2 SE 11,3 1025,6 81 - 316
08:49 18,9 15,4 6,4 ENE 16,1 1025,3 80 - 345
08:54 19,1 15,6 4,7 ESE 12,9 1025,3 80 - 452

Download your copy of this data-set  here

Our weather-data as stored at Weather Underground. Script developed by Jim McMurry. Adapted for the template by Leuven-Template.eu

You find our weather info also at:

European Weather Network

Weather Underground

European Weather Network

Equipment we use:

Weather-station
Davis VP2

Weather-program
Weather Display

Davis VP2

Weather Display



Hej. Vi har købt ny vejrstation, og er ved at bygge en helt ny vejrside.
Kom snart tilbage og følg udviklingen.
Du kan også komme med kommentarer eller evt. ønsker via "Kontakt" i bunden.